This is the latest recevied weather packets stored in our database for station/object KD9JB-1. If no packets are shown the sender has not sent any weather packets the latest 1 day(s).
| Time | Temp. | Humidity | Pressure | Rain* | Wind** | Luminosity | Snow |
|---|---|---|---|---|---|---|---|
| 1777989996 | 17.22° C | 71% | 1007.6 hPa | 0 mm | 1.34 m/s, 131° | - | - |
| 1777989696 | 17.22° C | 72% | 1007.7 hPa | 0 mm | 1.34 m/s, 117° | - | - |
| 1777989396 | 17.22° C | 72% | 1007.8 hPa | 0 mm | 1.34 m/s, 143° | - | - |
| 1777989096 | 17.22° C | 72% | 1008 hPa | 0 mm | 0.89 m/s, 89° | - | - |
| 1777988796 | 17.22° C | 72% | 1007.9 hPa | 0 mm | 0.89 m/s, 149° | - | - |
| 1777988496 | 17.22° C | 73% | 1007.8 hPa | 0 mm | 0.89 m/s, 156° | - | - |
| 1777988196 | 17.22° C | 73% | 1007.7 hPa | 0 mm | 1.34 m/s, 155° | - | - |
| 1777987896 | 17.22° C | 72% | 1007.7 hPa | 0 mm | 1.34 m/s, 166° | - | - |
| 1777987596 | 17.22° C | 73% | 1007.7 hPa | 0 mm | 0.89 m/s, 130° | - | - |
| 1777987296 | 17.22° C | 74% | 1007.6 hPa | 0 mm | 0.89 m/s, 120° | - | - |
| 1777986996 | 17.22° C | 75% | 1007.6 hPa | 0 mm | 0.89 m/s, 178° | - | - |
| 1777986696 | 17.22° C | 75% | 1007.6 hPa | 0 mm | 0.89 m/s, 119° | - | - |
| 1777986396 | 16.67° C | 75% | 1007.7 hPa | 0 mm | 0.89 m/s, 120° | - | - |
| 1777986096 | 16.67° C | 76% | 1007.7 hPa | 0 mm | 0.89 m/s, 152° | - | - |
| 1777985796 | 16.67° C | 77% | 1007.7 hPa | 0 mm | 0.89 m/s, 169° | - | - |
| 1777985496 | 16.67° C | 77% | 1007.7 hPa | 0 mm | 0.89 m/s, 187° | - | - |
| 1777985196 | 16.67° C | 78% | 1007.7 hPa | 0 mm | 0.89 m/s, 129° | - | - |
| 1777984896 | 16.67° C | 78% | 1007.7 hPa | 0 mm | 0.45 m/s, 119° | - | - |
| 1777984596 | 16.67° C | 79% | 1007.7 hPa | 0 mm | 0.89 m/s, 269° | - | - |
| 1777984296 | 16.11° C | 79% | 1007.7 hPa | 0 mm | 0.89 m/s, 178° | - | - |
| 1777983996 | 16.11° C | 79% | 1007.7 hPa | 0 mm | 0.89 m/s, 35° | - | - |
| 1777983696 | 16.11° C | 80% | 1007.8 hPa | 0 mm | 0.45 m/s, 150° | - | - |
| 1777983396 | 16.11° C | 80% | 1007.7 hPa | 0 mm | 0.45 m/s, 152° | - | - |
| 1777983096 | 16.11° C | 81% | 1007.7 hPa | 0 mm | 0.45 m/s, 152° | - | - |
| 1777982796 | 15.56° C | 80% | 1007.7 hPa | 0 mm | 0.45 m/s, 72° | - | - |
* Rain latest hour (hover to see other rain measurements)
** Current wind speed in m/s (hover to see current wind gust speed)